Regional Weather Roundup
Issued by NWS State College, PA

Home | Current Version | Previous Version | Text Only | Print | Product List | Glossary Off
Versions: 1 2 3 4 5 6 7 8 9 10 11 12 13 14 15 16 17 18 19 20 21 22 23 24 25 26 27 28 29 30 31 32 33 34 35 36 37 38 39 40 41 42 43 44 45 46 47 48 49 50

000
ASUS41 KCTP 260203
RWRCTP

REGIONAL WEATHER ROUNDUP
NATIONAL WEATHER SERVICE STATE COLLEGE PA
1000 PM EDT MON MAY 25 2015

Note: "fair" indicates few or no clouds below 12,000 feet with no
significant weather and/or obstructions to visibility.

* = STATION THAT DOES NOT REPORT PRECIPITATION /E.G. RAIN...SNOW...ETC/
    THUNDER OR FOG.

PAZ002>004-007>009-013>016-020>023-029>032-260300-
WESTERN PENNSYLVANIA

CITY           SKY/WX    TMP DP  RH WIND       PRES   REMARKS
ERIE           PTCLDY    76  61  59 S14       30.04R
MEADVILLE      PTCLDY    72  60  66 S3        30.09R
FRANKLIN*      PTCLDY    72  57  60 S10       30.12S
NEW CASTLE     FAIR      76  63  64 CALM      30.11R
BEAVER COUNTY  NOT AVBL
BUTLER*        MOCLDY    73  59  60 SW6       30.15R
PITTSBURGH INT MOCLDY    77  60  55 SW7       30.13R
PITTSBURGH     CLOUDY    76  57  51 S7        30.13S
INDIANA*       CLOUDY    72  61  68 SW5       30.18R
LATROBE        MOCLDY    73  61  64 S5        30.16
WASHINGTON CO* MOCLDY    66  61  82 CALM      30.16S
$$

PAZ004>006-010>012-017>019-024>028-033>037-041-042-045-046-049>053-260300-
CENTRAL PENNSYLVANIA

CITY           SKY/WX    TMP DP  RH WIND       PRES   REMARKS
BRADFORD       MOCLDY    73  57  57 VRB5      30.13R
DUBOIS         MOCLDY    74  58  57 SW7       30.14R
CLEARFIELD     PTCLDY    72  56  57 S5        30.15R
JOHNSTOWN      CLEAR     69  52  54 S9        30.20R
ALTOONA        PTCLDY    72  59  63 S9        30.18R
STATE COLLEGE  NOT AVBL
WILLIAMSPORT   MOCLDY    78  57  48 S16G24    30.10R
SELINSGROVE    MOCLDY    77  59  53 VRB6      30.15R
FT INDIANTOWN  PTCLDY    73  61  66 S6        30.19R
CAPITAL CITY   CLEAR     76  57  51 S8        30.17R
HARRISBURG     PTCLDY    76  59  55 S8        30.17R
YORK           CLEAR     73  58  59 VRB3      30.19R
$$

PAZ038>040-043-044-047-048-054-055-060>062-067>071-260300-
EASTERN PENNSYLVANIA

CITY           SKY/WX    TMP DP  RH WIND       PRES   REMARKS
SCRANTON       PTCLDY    75  58  55 SW9       30.15R
MOUNT POCONO   PTCLDY    68  57  68 SW7       30.22R
ALLENTOWN      CLEAR     76  58  53 S7        30.19R
QUAKERTOWN*    CLEAR     73  59  60 S3        30.22R
READING        CLEAR     74  58  57 S13       30.18R
LANCASTER      CLEAR     72  60  66 S14       30.20R
COATESVILLE    CLEAR     70  61  73 S3        30.23R
POTTSTOWN      CLEAR     73  59  61 VRB6      30.23R
BLUE BELL      CLEAR     73  61  64 S6        30.21R
DOYLESTOWN     CLEAR     73  58  59 S8        30.20R
WILLOW GROVE   NOT AVBL
NORTH PHILA    CLEAR     78  56  46 SW10      30.23R
PHILADELPHIA   PTCLDY    75  59  57 S9        30.22R
$$


USA.gov is the U.S. government's official web portal to all federal, state and local government web resources and services.